1484121600.45,13110,4.56,72600.5,-14.45,-33.21,-34.59,0,*6E
1484121601.67,13111,4.56,72602.3,-14.45,-33.03,-34.59,0,*6F
1484121602.92,13112,4.56,72600.5,-14.45,-33.03,-34.65,0,*63
1484121604.14,13113,4.56,72602.5,-14.45,-33.03,-34.77,0,*61
1484121605.42,13114,4.63,72604.8,-14.45,-32.97,-34.65,0,*69
1484121606.69,13115,4.56,72600.8,-14.45,-32.97,-34.65,0,*68
1484121607.93,13116,4.63,72600.8,-14.43,-32.91,-34.59,0,*64
1484121609.18,13117,4.56,72602.0,-14.43,-32.91,-34.59,0,*65
1484121610.42,13118,4.63,72602.5,-14.43,-32.91,-34.59,0,*6A
1484121611.69,13119,4.56,72600.3,-14.43,-32.97,-34.59,0,*6D
1484121612.93,13120,4.56,72602.5,-14.43,-32.91,-34.59,0,*61
1484121614.18,13121,4.63,72602.0,-14.43,-32.91,-34.59,0,*60
1484121615.42,13122,4.63,72600.5,-14.43,-32.91,-34.59,0,*63
1484121616.67,13123,4.63,72602.0,-14.43,-32.91,-34.71,0,*68
1484121617.91,13124,4.56,72602.3,-14.43,-32.91,-34.59,0,*65
1484121619.15,13125,4.56,72598.3,-14.43,-32.91,-34.59,0,*64
1484121620.45,13126,4.56,72600.8,-14.39,-32.85,-34.53,0,*65
1484121621.73,13127,4.56,72600.0,-14.43,-32.75,-34.71,0,*66
1484121623.0,13128,4.56,72600.0,-14.43,-32.85,-34.71,0,*66
1484121624.28,13129,4.63,72604.8,-14.39,-32.85,-34.71,0,*6A
1484121625.55,13130,4.56,72602.5,-14.43,-32.75,-34.59,0,*6A
1484121626.82,13131,4.56,72596.0,-14.39,-32.85,-34.59,0,*69
1484121628.1,13132,4.63,72602.3,-14.43,-32.75,-34.71,0,*62
1484121629.38,13133,4.63,72604.0,-14.39,-32.75,-34.59,0,*64
1484121630.66,13134,4.63,72602.5,-14.43,-32.69,-34.53,0,*69
1484121631.91,13135,4.56,72600.0,-14.39,-32.69,-34.59,0,*6F
1484121633.16,13136,4.63,72602.0,-14.43,-32.69,-34.59,0,*61
1484121634.42,13137,4.56,72602.5,-14.39,-32.69,-34.59,0,*6D
1484121635.66,13138,4.56,72602.8,-14.39,-32.57,-34.59,0,*6F
1484121636.94,13139,4.63,72600.3,-14.43,-32.57,-34.53,0,*69
1484121638.19,13140,4.56,72602.8,-14.39,-32.57,-34.59,0,*60
1484121639.46,13141,4.63,72604.5,-14.39,-32.57,-34.53,0,*6B
1484121640.74,13142,4.56,72598.8,-14.39,-32.57,-34.53,0,*68
1484121642.02,13143,4.56,72602.8,-14.39,-32.57,-34.53,0,*69
1484121643.26,13144,4.56,72602.3,-14.39,-32.51,-34.59,0,*62
1484121644.54,13145,4.56,72602.0,-14.43,-32.57,-34.53,0,*62
1484121645.81,13146,4.56,72600.0,-14.39,-32.51,-34.35,0,*6A
1484121647.06,13147,4.63,72600.3,-14.39,-32.39,-34.59,0,*6F
1484121648.29,13148,4.63,72604.3,-14.39,-32.39,-34.41,0,*69
1484121649.57,13149,4.56,72602.5,-14.39,-32.39,-34.53,0,*6B
1484121650.8,13150,4.56,72596.8,-14.39,-32.35,-34.41,0,*6C
1484121652.04,13151,4.63,72602.5,-14.39,-32.51,-34.25,0,*6D
1484121653.32,13152,4.63,72604.3,-14.39,-32.39,-34.53,0,*61
1484121654.59,13153,4.63,72600.3,-14.39,-32.39,-34.53,0,*60
1484121655.86,13154,4.63,72600.5,-14.37,-32.29,-34.35,0,*68
1484121657.13,13155,4.63,72602.3,-14.37,-32.19,-34.35,0,*6A
1484121658.4,13156,4.56,72602.0,-14.37,-32.19,-34.35,0,*69
1484121659.67,13157,4.56,72604.5,-14.37,-32.19,-34.35,0,*68
1484121660.91,13158,4.63,72602.8,-14.37,-32.13,-34.31,0,*69
1484121662.18,13159,4.63,72602.5,-14.37,-32.19,-34.35,0,*66
1484121663.45,13160,4.63,72604.0,-14.37,-32.19,-34.31,0,*68
1484121664.75,13161,4.63,72602.8,-14.39,-32.07,-34.35,0,*6C
1484121666.01,13162,4.63,72602.3,-14.39,-32.19,-34.25,0,*61
1484121667.28,13163,4.56,72600.5,-14.37,-32.19,-34.35,0,*6F
1484121668.53,13164,4.56,72600.3,-14.37,-32.01,-34.19,0,*6F
1484121669.78,13165,4.56,72600.8,-14.37,-32.01,-34.19,0,*6E
1484121671.02,13166,4.63,72604.8,-14.37,-32.13,-34.31,0,*64
1484121672.31,13167,4.63,72604.3,-14.35,-31.95,-34.19,0,*60
1484121673.58,13168,4.63,72606.0,-14.37,-31.95,-34.19,0,*6D
1484121674.85,13169,4.63,72606.0,-14.37,-31.85,-34.19,0,*6D
1484121676.14,13170,4.56,72600.8,-14.35,-31.95,-34.19,0,*66
1484121677.43,13171,4.63,72606.5,-14.35,-31.95,-34.19,0,*67
1484121678.7,13172,4.63,72602.5,-14.37,-31.85,-34.19,0,*67
1484121679.98,13173,4.56,72600.8,-14.37,-31.85,-34.19,0,*66
1484121681.26,13174,4.63,72600.5,-14.35,-31.95,-34.19,0,*62
1484121682.54,13175,4.63,72602.3,-14.37,-31.95,-34.19,0,*61
1484121683.83,13176,4.63,72604.8,-14.35,-31.95,-34.19,0,*60
1484121685.09,13177,4.63,72602.5,-14.35,-31.85,-34.13,0,*6A
1484121686.36,13178,4.63,72602.8,-14.35,-31.85,-34.13,0,*65
1484121687.6,13179,4.56,72600.0,-14.35,-31.79,-34.13,0,*67
1484121688.85,13180,4.63,72602.0,-14.35,-31.79,-34.13,0,*61
1484121690.09,13181,4.63,72600.8,-14.35,-31.79,-34.13,0,*60
1484121691.33,13182,4.63,72600.8,-14.35,-31.79,-34.07,0,*66
1484121692.6,13183,4.63,72604.8,-14.35,-31.73,-34.07,0,*6D
1484121693.84,13184,4.63,72600.0,-14.35,-31.79,-34.13,0,*65
1484121695.09,13185,4.63,72600.5,-14.37,-31.73,-34.07,0,*69
1484121696.36,13186,4.63,72604.3,-14.35,-31.73,-34.13,0,*6D
1484121697.62,13187,4.63,72606.5,-14.35,-31.57,-33.95,0,*63
1484121698.87,13188,4.63,72602.5,-14.37,-31.61,-34.07,0,*67
1484121700.14,13189,4.63,72602.3,-14.35,-31.61,-33.95,0,*68
1484121701.43,13190,4.56,72600.8,-14.35,-31.61,-33.89,0,*6D
1484121702.7,13191,4.56,72600.8,-14.33,-31.57,-33.89,0,*6F
1484121703.95,13192,4.63,72606.3,-14.33,-31.51,-33.83,0,*60
1484121705.24,13193,4.63,72606.3,-14.35,-31.57,-33.89,0,*6B
1484121706.51,13194,4.63,72606.5,-14.33,-31.57,-33.89,0,*6A
1484121707.78,13195,4.63,72606.0,-14.31,-31.57,-33.83,0,*63
1484121709.03,13196,4.63,72602.3,-14.33,-31.39,-33.83,0,*6A
1484121710.3,13197,4.63,72606.0,-14.33,-31.57,-33.89,0,*69
1484121711.57,13198,4.63,72606.0,-14.33,-31.51,-33.73,0,*65
1484121712.86,13199,4.63,72602.0,-14.31,-31.51,-33.73,0,*66
1484121714.09,13200,4.56,72602.8,-14.33,-31.33,-33.67,0,*66
1484121715.38,13201,4.63,72606.0,-14.31,-31.39,-33.73,0,*6A
1484121716.6,13202,4.63,72602.5,-14.33,-31.33,-33.67,0,*64
1484121717.83,13203,4.63,72602.5,-14.33,-31.33,-33.67,0,*65
1484121719.07,13204,4.63,72602.5,-14.33,-31.17,-33.49,0,*68
1484121720.35,13205,4.63,72600.5,-14.31,-31.23,-33.55,0,*61
1484121721.59,13206,4.56,72602.3,-14.33,-31.39,-33.55,0,*6B
1484121722.84,13207,4.63,72606.5,-14.33,-31.23,-33.55,0,*61
1484121724.14,13208,4.63,72604.5,-14.31,-31.23,-33.49,0,*61
1484121725.44,13209,4.63,72604.5,-14.31,-31.23,-33.49,0,*60
1484121726.71,13210,4.63,72604.8,-14.31,-31.17,-33.49,0,*6F
1484121727.94,13211,4.63,72604.3,-14.33,-31.17,-33.37,0,*65
1484121729.21,13212,4.63,72604.8,-14.31,-31.17,-33.49,0,*6D
1484121730.48,13213,4.63,72604.5,-14.31,-31.17,-33.31,0,*63
1484121731.73,13214,4.63,72606.0,-14.31,-31.17,-33.37,0,*62
1484121732.98,13215,4.63,72604.8,-14.31,-31.05,-33.37,0,*60
1484121734.23,13216,4.63,72602.3,-14.31,-31.17,-33.37,0,*60
1484121735.5,13217,4.56,72602.8,-14.31,-31.05,-33.31,0,*64
1484121736.75,13218,4.56,72600.3,-14.31,-31.05,-33.37,0,*6D
1484121737.99,13219,4.63,72602.8,-14.27,-31.01,-33.27,0,*6E
1484121739.26,13220,4.63,72604.8,-14.31,-31.05,-33.31,0,*60
1484121740.53,13221,4.63,72600.5,-14.31,-31.01,-33.31,0,*65
1484121741.78,13222,4.63,72602.8,-14.31,-31.05,-33.21,0,*63
1484121743.05,13223,4.63,72606.3,-14.31,-30.89,-33.15,0,*60
1484121744.29,13224,4.63,72604.3,-14.31,-31.05,-33.21,0,*65
1484121745.56,13225,4.63,72604.3,-14.27,-30.95,-33.09,0,*61
1484121746.84,13226,4.63,72606.3,-14.27,-30.95,-33.09,0,*62
1484121748.08,13227,4.63,72606.5,-14.27,-31.01,-33.09,0,*6F
1484121749.32,13228,4.56,72602.5,-14.27,-31.01,-33.09,0,*60
1484121750.59,13229,4.63,72604.3,-14.27,-30.95,-33.09,0,*6D
1484121751.86,13230,4.63,72604.5,-14.27,-30.95,-33.09,0,*65
1484121753.13,13231,4.63,72604.8,-14.27,-30.95,-32.97,0,*62
1484121754.37,13232,4.63,72604.5,-14.27,-30.83,-32.97,0,*66
1484121755.62,13233,4.63,72604.3,-14.27,-30.77,-32.91,0,*6A
1484121756.87,13234,4.63,72606.8,-14.27,-30.77,-32.91,0,*6D
1484121758.08,13235,4.63,72606.5,-14.27,-31.01,-32.91,0,*6C
1484121759.35,13236,4.63,72606.3,-14.27,-30.95,-32.97,0,*65
1484121760.59,13237,4.63,72606.5,-14.27,-31.01,-32.97,0,*68
1484121761.86,13238,4.63,72604.8,-14.27,-30.95,-32.97,0,*6B
1484121763.08,13239,4.63,72606.8,-14.27,-30.83,-32.91,0,*6B
1484121764.3,13240,4.63,72606.3,-14.27,-30.83,-32.91,0,*65
1484121765.58,13241,4.63,72606.5,-14.27,-30.77,-32.75,0,*65
1484121766.85,13242,4.56,72600.5,-14.27,-30.77,-32.79,0,*6A
1484121768.1,13243,4.63,72604.3,-14.27,-30.77,-32.91,0,*6D
1484121769.36,13244,4.63,72606.5,-14.27,-30.83,-32.75,0,*6B
1484121770.63,13245,4.63,72604.8,-14.27,-30.77,-32.79,0,*6D
1484121771.88,13246,4.63,72606.5,-14.27,-30.77,-32.69,0,*6F
1484121773.15,13247,4.63,72604.8,-14.27,-30.77,-32.75,0,*63
1484121774.43,13248,4.63,72606.0,-14.27,-30.95,-32.75,0,*60
1484121775.71,13249,4.63,72604.5,-14.27,-30.95,-32.75,0,*61
1484121776.95,13250,4.63,72606.3,-14.27,-30.77,-32.57,0,*65
1484121778.2,13251,4.63,72604.8,-14.27,-30.95,-32.69,0,*65
1484121779.42,13252,4.63,72606.0,-14.27,-30.83,-32.69,0,*61
1484121780.66,13253,4.63,72608.0,-14.27,-30.77,-32.57,0,*66
1484121781.9,13254,4.63,72606.0,-14.27,-30.77,-32.57,0,*61
1484121783.14,13255,4.63,72610.0,-14.27,-30.77,-32.57,0,*60
1484121784.41,13256,4.63,72604.3,-14.25,-30.73,-32.35,0,*61
1484121785.71,13257,4.63,72604.8,-14.25,-30.55,-32.19,0,*6A
1484121786.95,13258,4.63,72604.0,-14.27,-30.61,-32.23,0,*69
1484121788.2,13259,4.63,72608.5,-14.27,-30.77,-32.39,0,*64
1484121789.44,13260,4.63,72606.8,-14.27,-30.77,-32.39,0,*6E
1484121790.72,13261,4.63,72606.5,-14.25,-30.77,-32.35,0,*61
1484121791.99,13262,4.63,72606.8,-14.23,-30.73,-32.19,0,*6E
1484121793.28,13263,4.63,72604.3,-14.25,-30.61,-32.29,0,*69
1484121794.58,13264,4.63,72608.0,-14.25,-30.61,-32.19,0,*6D
1484121795.85,13265,4.63,72612.0,-14.25,-30.61,-32.01,0,*65
1484121797.11,13266,4.63,72604.8,-14.25,-30.55,-32.13,0,*62
1484121798.35,13267,4.63,72606.3,-14.23,-30.55,-32.01,0,*66
1484121799.62,13268,4.63,72604.3,-14.23,-30.77,-32.19,0,*60
1484121800.92,13269,4.63,72606.0,-14.25,-30.61,-32.19,0,*60
1484121802.17,13270,4.63,72604.3,-14.23,-30.73,-32.13,0,*67
1484121803.46,13271,4.63,72606.5,-14.25,-30.61,-31.95,0,*6E
1484121804.71,13272,4.63,72608.0,-14.23,-30.73,-32.13,0,*65
1484121805.96,13273,4.63,72604.8,-14.23,-30.73,-32.01,0,*67
1484121807.2,13274,4.63,72606.3,-14.23,-30.77,-32.01,0,*64
1484121808.47,13275,4.63,72606.0,-14.25,-30.61,-32.01,0,*64
1484121809.77,13276,4.63,72610.5,-14.25,-30.61,-31.95,0,*69
1484121811.06,13277,4.56,72604.3,-14.25,-30.55,-31.95,0,*6F
1484121812.33,13278,4.63,72608.5,-14.21,-30.55,-31.79,0,*66
1484121813.63,13279,4.63,72604.3,-14.25,-30.73,-31.95,0,*65
1484121814.93,13280,4.63,72604.3,-14.25,-30.77,-31.95,0,*67
1484121816.2,13281,4.63,72610.5,-14.23,-30.61,-31.85,0,*66
1484121817.47,13282,4.63,72608.8,-14.23,-30.61,-31.95,0,*64
1484121818.76,13283,4.63,72606.0,-14.25,-30.61,-31.85,0,*62
1484121820.01,13284,4.63,72604.8,-14.23,-30.61,-31.79,0,*60
1484121821.24,13285,4.63,72606.5,-14.23,-30.55,-31.79,0,*66
1484121822.49,13286,4.63,72608.0,-14.23,-30.61,-31.79,0,*62
1484121823.73,13287,4.63,72610.0,-14.23,-30.61,-31.79,0,*63
1484121824.97,13288,4.63,72606.8,-14.23,-30.61,-31.67,0,*63
1484121826.27,13289,4.63,72608.8,-14.21,-30.51,-31.73,0,*66
1484121827.54,13290,4.63,72604.0,-14.21,-30.67,-31.61,0,*68
1484121828.79,13291,4.63,72604.8,-14.23,-30.61,-31.67,0,*6B
1484121830.03,13292,4.63,72606.8,-14.23,-30.61,-31.67,0,*68
1484121831.27,13293,4.63,72606.0,-14.23,-30.73,-31.67,0,*6A
1484121832.55,13294,4.63,72608.0,-14.23,-30.61,-31.61,0,*68
1484121833.84,13295,4.63,72604.5,-14.21,-30.51,-31.57,0,*6D
1484121835.12,13296,4.63,72606.0,-14.17,-30.55,-31.57,0,*6F
1484121836.41,13297,4.63,72608.3,-14.17,-30.55,-31.57,0,*6E
1484121837.68,13298,4.63,72606.3,-14.21,-30.67,-31.57,0,*65
1484121838.97,13299,4.63,72608.0,-14.21,-30.55,-31.51,0,*63
1484121840.27,13300,4.63,72606.3,-14.21,-30.73,-31.57,0,*60
1484121841.54,13301,4.63,72606.8,-14.17,-30.67,-31.73,0,*67
1484121842.82,13302,4.63,72610.3,-14.21,-30.67,-31.61,0,*62
1484121844.12,13303,4.63,72606.8,-14.17,-30.73,-31.61,0,*63
1484121845.39,13304,4.56,72606.3,-14.17,-30.83,-31.61,0,*6B
1484121846.69,13305,4.63,72604.0,-14.17,-30.73,-31.61,0,*65
1484121847.99,13306,4.63,72604.3,-14.21,-30.73,-31.51,0,*60
1484121849.29,13307,4.63,72610.0,-14.17,-30.73,-31.51,0,*64
1484121850.56,13308,4.63,72606.0,-14.17,-30.67,-31.39,0,*60
1484121851.81,13309,4.63,72610.8,-14.21,-30.67,-31.33,0,*6E
1484121853.08,13310,4.63,72608.0,-14.17,-30.51,-31.33,0,*66
1484121854.35,13311,4.63,72606.3,-14.21,-30.73,-31.33,0,*62
1484121855.65,13312,4.63,72606.3,-14.17,-30.73,-31.39,0,*6E
1484121856.95,13313,4.63,72606.8,-14.17,-30.73,-31.39,0,*6F
1484121858.24,13314,4.63,72604.5,-14.17,-30.73,-31.39,0,*68
1484121859.54,13315,4.63,72608.5,-14.17,-30.73,-31.39,0,*69
1484121860.82,13316,4.63,72606.8,-14.17,-30.83,-31.39,0,*65
1484121862.09,13317,4.63,72604.8,-14.17,-30.83,-31.51,0,*6A
1484121863.36,13318,4.63,72606.8,-14.17,-30.89,-31.33,0,*6B
1484121864.63,13319,4.63,72608.8,-14.17,-30.83,-31.51,0,*64
1484121865.86,13320,4.63,72608.3,-14.15,-30.67,-31.29,0,*69
1484121867.08,13321,4.63,72606.5,-14.15,-30.67,-31.17,0,*65
1484121868.33,13322,4.63,72604.5,-14.15,-30.77,-31.33,0,*61
1484121869.58,13323,4.63,72608.0,-14.15,-30.77,-31.17,0,*66
1484121870.82,13324,4.63,72608.3,-14.15,-30.77,-31.17,0,*61
1484121872.07,13325,4.63,72608.8,-14.15,-30.77,-31.29,0,*6D
1484121873.32,13326,4.63,72606.8,-14.15,-30.77,-31.17,0,*63
1484121874.57,13327,4.63,72608.0,-14.13,-30.83,-31.33,0,*69
1484121875.81,13328,4.63,72608.3,-14.15,-30.77,-31.17,0,*6D
1484121877.09,13329,4.63,72608.8,-14.13,-30.67,-31.11,0,*6D
1484121878.31,13330,4.63,72606.3,-14.15,-30.83,-31.33,0,*69
1484121879.56,13331,4.63,72608.0,-14.15,-30.95,-31.29,0,*64
1484121880.8,13332,4.63,72610.8,-14.13,-30.83,-31.29,0,*66
1484121882.05,13333,4.63,72606.8,-14.15,-30.77,-31.17,0,*67
1484121883.33,13334,4.63,72606.0,-14.15,-30.77,-31.11,0,*66
1484121884.57,13335,4.63,72606.8,-14.13,-30.83,-31.17,0,*6C
1484121885.83,13336,4.63,72608.0,-14.13,-30.83,-31.17,0,*6F
1484121887.1,13337,4.63,72610.5,-14.13,-30.95,-31.29,0,*64
1484121888.34,13338,4.63,72608.0,-14.11,-30.77,-31.05,0,*6B
1484121889.58,13339,4.63,72604.8,-14.13,-30.83,-31.33,0,*66
1484121890.83,13340,4.63,72604.8,-14.15,-30.95,-31.29,0,*62
1484121892.07,13341,4.63,72608.5,-14.13,-31.01,-31.33,0,*62
1484121893.34,13342,4.63,72606.5,-14.13,-30.95,-31.29,0,*66
1484121894.61,13343,4.63,72608.0,-14.13,-30.95,-31.33,0,*6C
1484121895.85,13344,4.63,72608.8,-14.13,-31.01,-31.33,0,*67
1484121897.13,13345,4.63,72610.3,-14.13,-31.11,-31.29,0,*6C
1484121898.36,13346,4.63,72604.0,-14.13,-31.01,-31.33,0,*65
1484121899.63,13347,4.63,72606.8,-14.13,-30.95,-31.33,0,*68
1484121900.88,13348,4.63,72606.0,-14.13,-31.01,-31.45,0,*6A
1484121902.15,13349,4.63,72610.0,-14.13,-31.11,-31.33,0,*6B
1484121903.37,13350,4.63,72608.0,-14.15,-31.01,-31.29,0,*6F
1484121904.64,13351,4.63,72610.0,-14.13,-31.17,-31.51,0,*60
1484121905.92,13352,4.63,72604.0,-14.13,-31.11,-31.45,0,*60
1484121907.16,13353,4.63,72610.5,-14.13,-31.01,-31.29,0,*6A
1484121908.43,13354,4.63,72608.5,-14.13,-30.95,-31.45,0,*6B
1484121909.7,13355,4.63,72610.0,-14.13,-30.95,-31.33,0,*6B
1484121910.98,13356,4.63,72606.5,-14.11,-30.95,-31.23,0,*6B
1484121912.19,13357,4.63,72608.3,-14.11,-31.05,-31.45,0,*62
1484121913.44,13358,4.63,72610.3,-14.11,-31.11,-31.45,0,*68
1484121914.71,13359,4.63,72606.8,-14.11,-30.89,-31.39,0,*62
1484121915.96,13360,4.63,72610.5,-14.11,-30.95,-31.45,0,*6E
1484121917.23,13361,4.63,72606.5,-14.11,-30.77,-31.39,0,*68
1484121918.5,13362,4.63,72606.5,-14.09,-30.95,-31.45,0,*65
1484121919.8,13363,4.63,72608.8,-14.09,-30.89,-31.39,0,*62
1484121921.04,13364,4.63,72608.3,-14.11,-30.89,-31.29,0,*6D
1484121922.29,13365,4.63,72608.0,-14.11,-30.95,-31.45,0,*6B
1484121923.58,13366,4.63,72608.8,-14.09,-30.95,-31.51,0,*64
1484121924.88,13367,4.63,72606.3,-14.09,-30.95,-31.39,0,*6B
1484121926.15,13368,4.63,72610.0,-14.11,-30.89,-31.39,0,*60
1484121927.39,13369,4.63,72606.8,-14.11,-30.89,-31.45,0,*6A
1484121928.66,13370,4.63,72604.8,-14.09,-31.05,-31.61,0,*68
1484121929.93,13371,4.63,72606.3,-14.09,-31.05,-31.51,0,*6A
1484121931.2,13372,4.63,72606.5,-14.09,-30.89,-31.45,0,*69
1484121932.5,13373,4.56,72606.0,-14.09,-31.11,-31.61,0,*6E
1484121933.8,13374,4.63,72614.0,-14.09,-31.11,-31.61,0,*69
1484121935.07,13375,4.63,72604.8,-14.11,-30.95,-31.61,0,*6C
1484121936.34,13376,4.63,72604.3,-14.09,-31.11,-31.79,0,*62
1484121937.57,13377,4.63,72610.8,-14.09,-31.05,-31.67,0,*69
1484121938.78,13378,4.63,72608.0,-14.11,-31.05,-31.67,0,*6F
1484121940.02,13379,4.63,72610.8,-14.09,-31.05,-31.67,0,*67
1484121941.29,13380,4.63,72608.8,-14.09,-30.95,-31.67,0,*69
1484121942.55,13381,4.63,72610.0,-14.09,-30.89,-31.67,0,*65
1484121943.82,13382,4.63,72606.0,-14.09,-30.95,-31.79,0,*64
1484121945.08,13383,4.63,72610.3,-14.09,-30.95,-31.67,0,*6A
1484121946.35,13384,4.63,72606.0,-14.09,-30.89,-31.67,0,*60
1484121947.62,13385,4.63,72608.8,-14.09,-30.89,-31.67,0,*61
1484121948.88,13386,4.63,72610.3,-14.09,-30.89,-31.67,0,*62
1484121950.12,13387,4.63,72610.8,-14.11,-30.89,-31.67,0,*6A
1484121951.36,13388,4.63,72608.8,-14.11,-30.89,-31.79,0,*6A
1484121952.62,13389,4.63,72610.5,-14.11,-30.95,-31.85,0,*65
1484121953.89,13390,4.63,72608.0,-14.09,-31.05,-31.85,0,*6C
1484121955.16,13391,4.63,72604.8,-14.09,-31.11,-32.01,0,*67
1484121956.4,13392,4.63,72606.5,-14.09,-31.05,-32.01,0,*61
1484121957.69,13393,4.63,72608.8,-14.09,-30.89,-31.85,0,*6A
1484121958.95,13394,4.63,72608.5,-14.09,-30.77,-31.79,0,*6F
1484121960.22,13395,4.63,72610.5,-14.09,-30.73,-31.79,0,*6A
1484121961.49,13396,4.63,72608.5,-14.09,-30.77,-31.67,0,*62
1484121962.75,13397,4.63,72610.8,-14.09,-30.73,-31.67,0,*67
1484121964.02,13398,4.63,72608.0,-14.09,-30.73,-31.79,0,*67
1484121965.28,13399,4.63,72604.3,-14.09,-30.61,-31.79,0,*65
1484121966.54,13400,4.63,72608.0,-14.09,-30.61,-31.67,0,*6D
1484121967.77,13401,4.63,72608.3,-14.11,-30.55,-31.67,0,*62
1484121969.06,13402,4.63,72610.8,-14.09,-30.77,-31.85,0,*64
1484121970.36,13403,4.63,72610.0,-14.09,-30.77,-31.85,0,*65
1484121971.65,13404,4.63,72608.8,-14.09,-30.77,-31.95,0,*63
1484121972.95,13405,4.63,72608.0,-14.09,-30.77,-31.85,0,*63
1484121974.2,13406,4.63,72610.3,-14.09,-30.55,-31.67,0,*6C
1484121975.46,13407,4.63,72610.8,-14.09,-30.39,-31.67,0,*67
1484121976.74,13408,4.63,72610.5,-14.05,-30.39,-31.73,0,*61
1484121978.03,13409,4.63,72608.8,-14.05,-30.51,-31.73,0,*6E
1484121979.31,13410,4.63,72610.0,-14.05,-30.39,-31.73,0,*68
1484121980.59,13411,4.63,72608.8,-14.05,-30.39,-31.73,0,*69
1484121981.88,13412,4.63,72610.5,-14.05,-30.39,-31.73,0,*6A
1484121983.16,13413,4.63,72608.0,-14.05,-30.51,-31.73,0,*65
1484121984.45,13414,4.63,72612.0,-14.05,-30.39,-31.73,0,*6C
1484121985.71,13415,4.56,72606.3,-14.05,-30.33,-31.61,0,*64
1484121986.98,13416,4.63,72610.0,-14.05,-30.33,-31.61,0,*67
1484121988.25,13417,4.63,72608.5,-14.05,-30.33,-31.61,0,*66
1484121989.52,13418,4.63,72610.5,-14.05,-30.33,-31.61,0,*69
1484121990.8,13419,4.63,72610.5,-14.05,-30.39,-31.61,0,*62
1484121992.09,13420,4.63,72610.3,-14.05,-30.39,-31.61,0,*68
1484121993.36,13421,4.63,72610.8,-14.05,-30.33,-31.61,0,*63
1484121994.63,13422,4.63,72610.3,-14.05,-30.33,-31.61,0,*60
1484121995.89,13423,4.56,72604.3,-14.05,-30.23,-31.61,0,*60
1484121997.16,13424,4.63,72608.8,-14.05,-30.33,-31.61,0,*66
1484121998.42,13425,4.63,72608.8,-14.05,-30.39,-31.79,0,*64
1484121999.69,13426,4.63,72610.3,-14.05,-30.33,-31.61,0,*64
1484122000.95,13427,4.63,72610.8,-14.05,-30.23,-31.57,0,*61
1484122002.21,13428,4.63,72608.0,-14.05,-30.23,-31.57,0,*6E
1484122003.48,13429,4.63,72610.5,-14.05,-30.23,-31.61,0,*6A
1484122004.74,13430,4.63,72608.5,-14.05,-30.23,-31.61,0,*62
1484122006.01,13431,4.63,72610.0,-14.05,-30.23,-31.61,0,*63
1484122007.31,13432,4.63,72610.8,-14.05,-30.17,-31.61,0,*67
1484122008.6,13433,4.63,72608.3,-14.05,-30.17,-31.39,0,*6B
1484122009.88,13434,4.63,72612.5,-14.05,-30.17,-31.45,0,*67
1484122011.13,13435,4.63,72612.0,-14.05,-30.23,-31.45,0,*61
1484122012.42,13436,4.63,72610.3,-14.05,-30.17,-31.57,0,*66
1484122013.69,13437,4.63,72612.3,-14.05,-30.17,-31.45,0,*64
1484122014.99,13438,4.63,72612.5,-14.05,-30.17,-31.39,0,*60
1484122016.28,13439,4.63,72610.5,-14.05,-30.17,-31.39,0,*61
1484122017.55,13440,4.63,72610.8,-14.05,-30.23,-31.39,0,*68
1484122018.79,13441,4.63,72610.5,-14.05,-30.11,-31.33,0,*62
1484122020.0,13442,4.63,72608.8,-14.03,-30.11,-31.33,0,*67
1484122021.24,13443,4.63,72610.8,-14.03,-30.11,-31.39,0,*6C
1484122022.48,13444,4.63,72610.0,-14.01,-30.11,-31.33,0,*63
1484122023.75,13445,4.63,72610.8,-14.05,-30.11,-31.39,0,*6C
1484122025.02,13446,4.63,72608.0,-14.01,-30.11,-31.39,0,*6B
1484122026.25,13447,4.63,72608.5,-14.03,-30.23,-31.57,0,*61
1484122027.46,13448,4.63,72612.8,-14.03,-30.23,-31.45,0,*6D
1484122028.69,13449,4.63,72610.8,-14.03,-30.23,-31.57,0,*6F
1484122029.99,13450,4.63,72612.5,-14.01,-30.17,-31.39,0,*6A
1484122031.26,13451,4.63,72612.3,-14.01,-30.27,-31.51,0,*66
1484122032.48,13452,4.63,72612.0,-14.03,-30.33,-31.45,0,*67
1484122033.71,13453,4.63,72612.0,-14.03,-30.23,-31.39,0,*6C
1484122035.01,13454,4.63,72610.0,-14.01,-30.17,-31.39,0,*6E
1484122036.22,13455,4.63,72612.3,-14.03,-30.33,-31.45,0,*60
1484122037.49,13456,4.63,72610.8,-14.03,-30.17,-31.23,0,*65
1484122038.73,13457,4.63,72614.8,-14.03,-30.23,-31.23,0,*63
1484122039.97,13458,4.63,72610.3,-14.03,-30.33,-31.39,0,*66
1484122041.2,13459,4.63,72614.5,-14.03,-30.33,-31.39,0,*67
1484122042.44,13460,4.63,72612.0,-14.03,-30.33,-31.39,0,*6D
1484122043.65,13461,4.63,72610.8,-14.03,-30.33,-31.33,0,*66
1484122044.86,13462,4.63,72608.8,-14.03,-30.33,-31.33,0,*65
1484122046.09,13463,4.63,72608.5,-14.03,-30.39,-31.45,0,*6F
1484122047.33,13464,4.63,72610.5,-14.03,-30.39,-31.45,0,*68
1484122048.59,13465,4.63,72612.0,-14.03,-30.51,-31.39,0,*6C
1484122049.85,13466,4.63,72608.8,-14.01,-30.45,-31.39,0,*68
1484122051.08,13467,4.63,72614.3,-14.03,-30.39,-31.33,0,*6A
1484122052.32,13468,4.63,72608.8,-14.03,-30.33,-31.39,0,*65
1484122053.58,13469,4.63,72610.3,-14.03,-30.51,-31.39,0,*60
1484122054.87,13470,4.63,72614.5,-14.05,-30.51,-31.39,0,*6E
1484122056.13,13471,4.63,72612.5,-14.05,-30.51,-31.33,0,*65
1484122057.43,13472,4.63,72610.8,-14.05,-30.39,-31.23,0,*69
1484122058.65,13473,4.63,72610.3,-14.03,-30.39,-31.33,0,*6F
1484122059.91,13474,4.63,72612.3,-14.03,-30.39,-31.23,0,*69
1484122061.13,13475,4.63,72612.0,-14.03,-30.33,-31.05,0,*66
1484122062.36,13476,4.63,72612.5,-14.03,-30.39,-31.17,0,*6C
1484122063.62,13477,4.63,72610.5,-14.03,-30.51,-31.23,0,*64
1484122064.86,13478,4.63,72608.8,-14.03,-30.39,-31.17,0,*62
1484122066.09,13479,4.63,72612.8,-14.03,-30.55,-31.33,0,*6F
1484122067.35,13480,4.63,72610.0,-14.03,-30.51,-31.23,0,*6C
1484122068.58,13481,4.63,72614.5,-14.03,-30.55,-31.33,0,*68
1484122069.84,13482,4.63,72612.8,-14.01,-30.45,-31.11,0,*68
1484122071.11,13483,4.63,72610.5,-14.03,-30.51,-31.23,0,*6F
1484122072.32,13484,4.63,72612.5,-14.03,-30.33,-31.05,0,*68
1484122073.58,13485,4.63,72608.3,-14.01,-30.45,-31.11,0,*6F
1484122074.88,13486,4.63,72612.8,-14.05,-30.51,-31.23,0,*6C
1484122076.14,13487,4.63,72610.8,-14.01,-30.33,-31.11,0,*6C
1484122077.4,13488,4.63,72608.5,-14.03,-30.55,-31.23,0,*60
1484122078.64,13489,4.63,72614.0,-14.03,-30.55,-31.05,0,*65
1484122079.85,13490,4.63,72612.8,-14.03,-30.33,-31.01,0,*69
1484122081.08,13491,4.63,72608.3,-14.03,-30.55,-31.17,0,*6F
1484122082.31,13492,4.63,72612.0,-14.03,-30.55,-31.17,0,*6C
1484122083.55,13493,4.63,72610.0,-14.03,-30.51,-31.05,0,*6A
1484122084.78,13494,4.63,72610.3,-14.01,-30.45,-31.01,0,*6E
1484122086.08,13495,4.63,72614.3,-14.01,-30.51,-31.11,0,*6B
1484122087.31,13496,4.63,72608.3,-14.03,-30.51,-31.17,0,*6C
1484122088.55,13497,4.63,72610.3,-14.01,-30.45,-31.01,0,*6D
1484122089.82,13498,4.63,72612.3,-14.01,-30.51,-31.17,0,*60
1484122091.08,13499,4.63,72610.0,-14.03,-30.73,-31.39,0,*6F
1484122092.35,13500,4.63,72610.5,-14.01,-30.61,-31.29,0,*6E
1484122093.59,13501,4.63,72612.5,-14.03,-30.73,-31.33,0,*65
1484122094.81,13502,4.63,72612.0,-14.03,-30.55,-31.33,0,*62
1484122096.05,13503,4.63,72610.5,-14.03,-30.51,-31.33,0,*67
1484122097.27,13504,4.63,72606.8,-14.03,-30.67,-31.45,0,*64
1484122098.48,13505,4.63,72610.5,-14.03,-30.67,-31.33,0,*64
1484122099.72,13506,4.63,72608.3,-14.03,-30.67,-31.39,0,*6D
1484122100.96,13507,4.63,72608.0,-14.03,-30.67,-31.39,0,*6C
1484122102.23,13508,4.63,72610.0,-14.01,-30.61,-31.33,0,*6D
1484122103.47,13509,4.63,72608.5,-14.03,-30.73,-31.45,0,*6C